Location: ????????
(38.4362°N, 22.8767°E)
Time: 18:40:33
(UTC+00:00)

Meteor 2-4 Rocket - Pass Details

Date: 23 April 2024
Orbit: 799 x 907 km, 81.2° (Epoch: 27 May)

Event Time Altitude Azimuth Distance (km) Brightness Sun altitude
Exits shadow 01:22:16 58° 267° (W) 962 3.7 -24.5°
Maximum altitude 01:22:33 59° 281° (WNW) 956 3.7 -24.5°
Drops below altitude 10° 01:28:05 10° 1° (N) 2,482 6.7 -23.7°
Sets 01:30:36 0° 6° (N) 3,439 7.5 -23.3°
